This demonstration page uses our WeatherBlox Daily Observations layout. Learn more.

Left ArrowRight Arrow

38.80484, -77.04692

Hourly Observations for September 21, 2020

Temp ( °F °C ) Dew Point ( °F °C ) Humidity (%) Winds ( mph kmh ) Pressure ( in mb ) Visibility ( mi km ) Precip ( " mm )
12:52 am 00:52 Clear 54 12.2 44 6.7 69 69 NE 8 13 30.52 1034 10 16 N/A
1:52 am 01:52 Clear 52 11.1 42 5.6 69 69 NNE 7 11 30.53 1034 10 16 N/A
2:52 am 02:52 Mostly Clear 51 10.6 43 6.1 74 74 N 5 7 30.53 1034 10 16 N/A
3:52 am 03:52 Mostly Clear 50 10 43 6.1 77 77 NNW 8 13 30.52 1034 10 16 N/A
4:52 am 04:52 Mostly Clear 50 10 43 6.1 77 77 NNW 7 11 30.52 1034 10 16 N/A
5:52 am 05:52 Mostly Clear 50 10 43 6.1 77 77 N 6 9 30.53 1034 10 16 N/A
6:52 am 06:52 Mostly Clear 50 10 40 4.4 68 68 N 7 11 30.54 1034 10 16 N/A
7:52 am 07:52 Mostly Sunny 52 11.1 40 4.4 64 64 NNE 8 13 30.55 1035 10 16 N/A
8:52 am 08:52 Mostly Sunny 56 13.3 42 5.6 60 60 NE 12 19 30.56 1035 10 16 N/A
9:52 am 09:52 Mostly Sunny 60 15.6 42 5.6 52 52 NE 12 19 30.57 1035 10 16 N/A
10:52 am 10:52 Mostly Sunny 62 16.7 43 6.1 50 50 NE 14 22 30.57 1035 10 16 N/A
11:52 am 11:52 Mostly Sunny 64 17.8 40 4.4 41 41 ENE 9 15 30.56 1035 10 16 N/A
12:52 pm 12:52 Mostly Sunny 65 18.3 41 5 42 42 NE 10 17 30.54 1034 10 16 N/A
1:52 pm 13:52 Mostly Sunny 67 19.4 40 4.4 37 37 NE 13 20 30.51 1033 10 16 N/A
2:52 pm 14:52 Sunny 67 19.4 37 2.8 33 33 NNE 9 15 30.50 1033 10 16 N/A
3:52 pm 15:52 Mostly Sunny 66 18.9 37 2.8 34 34 NE 9 15 30.48 1032 10 16 N/A
4:52 pm 16:52 Mostly Sunny 66 18.9 38 3.3 36 36 ENE 12 19 30.46 1031 10 16 N/A
5:52 pm 17:52 Mostly Sunny 65 18.3 34 1.1 32 32 VRB 6 9 30.44 1031 10 16 N/A
6:52 pm 18:52 Mostly Sunny 62 16.7 37 2.8 40 40 E 7 11 30.44 1031 10 16 N/A
7:52 pm 19:52 Mostly Clear 60 15.6 39 3.9 46 46 E 5 7 30.42 1030 10 16 N/A
8:52 pm 20:52 Clear 60 15.6 41 5 50 50 N N/A 30.42 1030 10 16 N/A
9:52 pm 21:52 Clear 58 14.4 44 6.7 60 60 N N/A 30.41 1030 10 16 N/A
10:52 pm 22:52 Clear 56 13.3 43 6.1 62 62 N N/A 30.40 1029 10 16 N/A
11:52 pm 23:52 Clear 53 11.7 45 7.2 74 74 N 3 6 30.38 1029 10 16 N/A

Powered by AerisWeather